Location: ??
(34.7707°N, 135.6540°E)
Time: 05:45:38
(UTC+00:00)

SeaSat 1 - Pass Details

Date: 09 April 2020
Orbit: 745 x 746 km, 108.0° (Epoch: 05 June)

Event Time Altitude Azimuth Distance (km) Brightness Sun altitude
Rises 19:26:45 0° 139° (SE) 3,172 6.0 -13.8°
Reaches altitude 10° 19:29:04 10° 134° (SE) 2,252 5.3 -13.4°
Maximum altitude 19:33:46 48° 61° (ENE) 973 3.6 -12.5°
Drops below altitude 10° 19:38:28 10° 348° (NNW) 2,264 5.0 -11.5°
Sets 19:40:48 0° 343° (NNW) 3,192 5.7 -11.1°
